Regional Weather Roundup
Issued by NWS Burlington, VT

Home | Current Version | Previous Version | Text Only | Print | Product List | Glossary On
Versions: 1 2 3 4 5 6 7 8 9 10 11 12 13 14 15 16 17 18 19 20 21 22 23 24 25 26 27 28 29 30 31 32 33 34 35 36 37 38 39 40 41 42 43 44 45 46 47 48 49 50
000
ASUS41 KBTV 011830
RWRBTV
VERMONT REGIONAL WEATHER ROUNDUP
NATIONAL WEATHER SERVICE BURLINGTON VT
200 PM EDT MON SEP 01 2014

NOTE: "FAIR" INDICATES FEW OR NO CLOUDS BELOW 12,000 FEET WITH NO
SIGNIFICANT WEATHER AND/OR OBSTRUCTIONS TO VISIBILITY.

* THESE REPORTS ARE NOT UNDER NWS QUALITY CONTROL AND/OR DO NOT
  REPORT WEATHER SUCH AS PRECIPITATION AND FOG.

VTZ001>019-011900-
_____VERMONT_____


CITY           SKY/WX    TMP DP  RH WIND       PRES   REMARKS
BURLINGTON     PTCLDY    85  63  47 W6        29.93F
6HR MIN TEMP:  71; 6HR MAX TEMP:  86;

MONTPELIER     MOCLDY    80  64  58 NW7       30.01S
6HR MIN TEMP:  62; 6HR MAX TEMP:  81;

MORRISVILLE    PTCLDY    83  61  47 VRB5      29.96F
6HR MIN TEMP:  65; 6HR MAX TEMP:  83;

ST. JOHNSBURY*   N/A     82  60  47 MISG      29.92F
6HR MIN TEMP:  66; 6HR MAX TEMP:  82; 6HR PCP:  0.01;

MIDDLEBURY*    FAIR      84  65  53 S8        29.94F
6HR MIN TEMP:  71; 6HR MAX TEMP:  83;

RUTLAND*       PTCLDY    81  63  54 SW8       29.96F
6HR MIN TEMP:  66; 6HR MAX TEMP:  81;

SPRINGFIELD    MOCLDY    83  61  47 VRB6      29.97S
6HR MIN TEMP:  65; 6HR MAX TEMP:  84;

HIGHGATE*      FAIR      78  67  69 CALM      29.92F
6HR MIN TEMP:  69; 6HR MAX TEMP:  80;

NEWPORT*       FAIR      77  64  63 W3        29.96F
6HR MIN TEMP:  67; 6HR MAX TEMP:  79;

BENNINGTON     MOCLDY    80  65  59 NW6       29.99F
6HR MIN TEMP:  69; 6HR MAX TEMP:  82;

SUTTON*          N/A     79 N/A N/A MISG        N/A
MT. MANSFIELD*   N/A     64 N/A N/A W7          N/A

_____LAKE CHAMPLAIN_____


CITY           SKY/WX    TMP DP  RH WIND       PRES   REMARKS
BURTON ISLAND*   N/A     79  66  65 SE3         N/A
COLCHESTER RF*   N/A     77  68  73 S5          N/A
DIAMOND ISL*     N/A     81  66  61 E2          N/A

$$

NYZ007-026>031-035-052-083-011900-
_____NORTHERN NEW YORK_____


CITY           SKY/WX    TMP DP  RH WIND       PRES   REMARKS
PLATTSBURGH    PTCLDY    80  67  64 S8        29.92F
6HR MIN TEMP:  68; 6HR MAX TEMP:  81;

SARANAC LAKE   PTCLDY    78  60  53 W10       29.98F
6HR MIN TEMP:  66; 6HR MAX TEMP:  78;

MASSENA        PTCLDY    78  66  66 W7        29.93F
6HR MIN TEMP:  68; 6HR MAX TEMP:  80;

OGDENSBURG*    PTCLDY    82  66  57 SW6       29.92F
POTSDAM*       PTCLDY    81  70  69 W8        29.93F
WATERTOWN      PTCLDY    80  68  66 W10       29.94F
6HR MIN TEMP:  70; 6HR MAX TEMP:  80;

FT DRUM        PTCLDY    81  66  61 VRB7      29.94F
6HR MIN TEMP:  69; 6HR MAX TEMP:  80;

ALBANY         PTCLDY    85  65  51 NW9       29.96F
6HR MIN TEMP:  71; 6HR MAX TEMP:  86;

GLENS FALLS    MOCLDY    83  68  60 S8        29.94F
6HR MIN TEMP:  68; 6HR MAX TEMP:  83;


$$
NHZ002-005-011-011900-
_____NEW HAMPSHIRE_____


CITY           SKY/WX    TMP DP  RH WIND       PRES   REMARKS
LEBANON        PTCLDY    83  62  49 CALM      29.95S
6HR MIN TEMP:  66; 6HR MAX TEMP:  84;

KEENE          CLEAR     84  63  48 W6        29.96F
6HR MIN TEMP:  70; 6HR MAX TEMP:  82;

PLYMOUTH       FAIR      82  67  60 W6        29.94F
6HR MIN TEMP:  65; 6HR MAX TEMP:  83;

WHITEFIELD     PTCLDY    82  63  52 VRB6      29.96F
6HR MIN TEMP:  65; 6HR MAX TEMP:  82;


$$

_____REGIONAL QUEBEC LOCATIONS_____


CITY           SKY/WX    TMP DP  RH WIND       PRES   REMARKS
MONTREAL       MOCLDY    75  64  69 SW13      29.92F
QUEBEC CITY    CLOUDY    66  61  82 NE10G17   29.95S
SHERBROOKE     PTCLDY    75  64  69 W7        29.95F

_____REGIONAL ONTARIO LOCATIONS_____


CITY           SKY/WX    TMP DP  RH WIND       PRES   REMARKS
OTTAWA         PTCLDY    77  64  65 S8        29.93S

______KEY______
VSB  - VISIBILITY IN MILES
WCI  - WIND CHILL INDEX
HX   - HEAT INDEX
$$
NNNN


USA.gov is the U.S. government's official web portal to all federal, state and local government web resources and services.